When you browse on this site, cookies collect data to enhance your experience and personalize the content and advertising you see.
Visit our Privacy Policy to learn more. By continuing to use the site, you agree to this use of cookies and data.
  • In United Kingdom
  • List of Countries
  • For 7 days
  • Water Temperature
  • Weather Map
  • Weather Widgets
  • user-avatar
    Login

    Hourly Weather Cottbus

    Today, 26 January, Sunday

    Time Temperature Precipitation Wind Pressure Humidity
    00:00 0°C° 0 mm 1 mps 759 mmHg 67%
    01:00 0°C° 0 mm 1 mps 759 mmHg 67%
    02:00 0°C° 0 mm 1 mps 759 mmHg 68%
    03:00 0°C° 0 mm 1 mps 758 mmHg 68%
    04:00 -2°C° 0 mm 2 mps 758 mmHg 69%
    05:00 -2°C° 0 mm 2 mps 758 mmHg 68%
    06:00 -2°C° 0 mm 2 mps 758 mmHg 68%
    07:00 -2°C° 0 mm 2 mps 758 mmHg 69%
    08:00 -1°C° 0 mm 2 mps 758 mmHg 66%
    09:00 -1°C° 0 mm 2 mps 758 mmHg 63%
    10:00 +1°C° 0 mm 2 mps 758 mmHg 60%
    11:00 +2°C° 0 mm 2 mps 758 mmHg 60%
    12:00 +3°C° 0 mm 2 mps 758 mmHg 60%
    13:00 +3°C° 0 mm 2 mps 758 mmHg 60%
    14:00 +3°C° 0 mm 2 mps 757 mmHg 64%
    15:00 +3°C° 0 mm 2 mps 757 mmHg 69%
    16:00 +2°C° 0 mm 2 mps 757 mmHg 73%
    17:00 +2°C° 0 mm 2 mps 757 mmHg 76%
    18:00 +2°C° 0 mm 2 mps 756 mmHg 78%
    19:00 +1°C° 0 mm 2 mps 756 mmHg 80%
    20:00 +2°C° 0 mm 2 mps 756 mmHg 80%
    21:00 +2°C° 0 mm 2 mps 756 mmHg 80%
    22:00 +2°C° 0 mm 2 mps 756 mmHg 80%
    23:00 +2°C° 0 mm 2 mps 756 mmHg 80%

    Tomorrow, 27 January, Monday

    Time Temperature Precipitation Wind Pressure Humidity
    00:00 +1°C° 0 mm 3 mps 756 mmHg 81%
    01:00 +2°C° 0 mm 3 mps 755 mmHg 81%
    02:00 +1°C° 0 mm 3 mps 755 mmHg 84%
    03:00 +1°C° 0 mm 3 mps 755 mmHg 87%
    04:00 +1°C° 0 mm 3 mps 755 mmHg 89%
    05:00 +1°C° 0 mm 3 mps 754 mmHg 90%
    06:00 +1°C° 0 mm 3 mps 754 mmHg 90%
    07:00 0°C° 0 mm 3 mps 754 mmHg 91%
    08:00 0°C° 0 mm 4 mps 754 mmHg 88%
    09:00 +1°C° 0 mm 4 mps 754 mmHg 85%
    10:00 +4°C° 0 mm 4 mps 754 mmHg 82%
    11:00 +5°C° 0 mm 4 mps 753 mmHg 78%
    12:00 +6°C° 0 mm 4 mps 753 mmHg 74%
    13:00 +8°C° 0 mm 5 mps 752 mmHg 69%
    14:00 +7°C° 0 mm 4 mps 752 mmHg 72%
    15:00 +6°C° 0 mm 4 mps 752 mmHg 74%
    16:00 +6°C° 0 mm 4 mps 751 mmHg 77%
    17:00 +5°C° 0 mm 4 mps 751 mmHg 79%
    18:00 +5°C° 0 mm 4 mps 750 mmHg 81%
    19:00 +4°C° 0 mm 4 mps 750 mmHg 83%
    20:00 +4°C° 0.1 mm 4 mps 749 mmHg 83%
    21:00 +3°C° 0.1 mm 5 mps 749 mmHg 83%
    22:00 +5°C° 0.1 mm 5 mps 748 mmHg 83%
    23:00 +5°C° 0.4 mm 5 mps 747 mmHg 82%

    Day after tomorrow, 28 January, Tuesday

    Time Temperature Precipitation Wind Pressure Humidity
    00:00 +5°C° 0.4 mm 5 mps 747 mmHg 82%
    01:00 +5°C° 0.4 mm 5 mps 746 mmHg 81%
    02:00 +5°C° 0 mm 5 mps 745 mmHg 81%
    03:00 +5°C° 0 mm 5 mps 744 mmHg 81%
    04:00 +5°C° 0 mm 5 mps 744 mmHg 81%
    05:00 +5°C° 0 mm 5 mps 743 mmHg 81%
    06:00 +4°C° 0 mm 6 mps 742 mmHg 80%
    07:00 +4°C° 0 mm 6 mps 741 mmHg 80%
    08:00 +5°C° 0.3 mm 6 mps 741 mmHg 79%
    09:00 +5°C° 0.3 mm 7 mps 740 mmHg 79%
    10:00 +5°C° 0.3 mm 7 mps 740 mmHg 78%
    11:00 +6°C° 0.1 mm 7 mps 740 mmHg 75%
    12:00 +6°C° 0.1 mm 7 mps 739 mmHg 72%
    13:00 +6°C° 0.1 mm 7 mps 738 mmHg 69%
    14:00 +5°C° 0.6 mm 7 mps 738 mmHg 72%
    15:00 +5°C° 0.6 mm 7 mps 738 mmHg 76%
    16:00 +4°C° 0.6 mm 7 mps 738 mmHg 79%
    17:00 +3°C° 1.8 mm 7 mps 738 mmHg 78%
    18:00 +2°C° 1.8 mm 8 mps 739 mmHg 77%
    19:00 +1°C° 1.8 mm 9 mps 740 mmHg 75%
    20:00 0°C° 0 mm 8 mps 740 mmHg 74%
    21:00 0°C° 0 mm 7 mps 741 mmHg 73%
    22:00 0°C° 0 mm 5 mps 742 mmHg 72%
    23:00 0°C° 0 mm 5 mps 742 mmHg 73%

    29 January, Wednesday

    Time Temperature Precipitation Wind Pressure Humidity
    00:00 0°C° 0 mm 5 mps 742 mmHg 74%
    01:00 -1°C° 0 mm 5 mps 742 mmHg 75%
    02:00 -1°C° 0 mm 5 mps 741 mmHg 77%
    03:00 -1°C° 0 mm 5 mps 741 mmHg 79%
    04:00 -1°C° 0 mm 5 mps 741 mmHg 82%
    05:00 -1°C° 0 mm 5 mps 741 mmHg 85%
    06:00 -1°C° 0 mm 5 mps 741 mmHg 88%
    07:00 -1°C° 0 mm 5 mps 740 mmHg 91%
    08:00 -1°C° 0 mm 6 mps 741 mmHg 87%
    09:00 -1°C° 0 mm 7 mps 741 mmHg 83%
    10:00 0°C° 0 mm 8 mps 741 mmHg 78%
    11:00 0°C° 0.4 mm 8 mps 741 mmHg 82%
    12:00 0°C° 0.4 mm 8 mps 742 mmHg 86%
    13:00 0°C° 0.4 mm 9 mps 742 mmHg 90%
    14:00 0°C° 0.5 mm 8 mps 742 mmHg 88%
    15:00 0°C° 0.5 mm 7 mps 743 mmHg 86%
    16:00 +1°C° 0.5 mm 6 mps 743 mmHg 84%
    17:00 0°C° 0.5 mm 7 mps 744 mmHg 83%
    18:00 0°C° 0.5 mm 8 mps 745 mmHg 82%
    19:00 +1°C° 0.5 mm 9 mps 746 mmHg 82%
    20:00 0°C° 0.3 mm 9 mps 746 mmHg 84%
    21:00 0°C° 0.3 mm 9 mps 747 mmHg 86%
    22:00 0°C° 0.3 mm 9 mps 748 mmHg 88%
    23:00 0°C° 0.1 mm 9 mps 749 mmHg 88%

    30 January, Thursday

    Time Temperature Precipitation Wind Pressure Humidity
    00:00 0°C° 0.1 mm 9 mps 749 mmHg 88%
    01:00 0°C° 0.1 mm 9 mps 750 mmHg 87%
    02:00 0°C° 0.1 mm 9 mps 751 mmHg 88%
    03:00 0°C° 0.1 mm 8 mps 751 mmHg 89%
    04:00 0°C° 0.1 mm 8 mps 752 mmHg 90%
    05:00 0°C° 0 mm 8 mps 752 mmHg 87%
    06:00 -1°C° 0 mm 7 mps 753 mmHg 84%
    07:00 -1°C° 0 mm 7 mps 753 mmHg 81%
    08:00 -1°C° 0 mm 7 mps 753 mmHg 81%
    09:00 -1°C° 0 mm 7 mps 753 mmHg 80%
    10:00 -1°C° 0 mm 7 mps 754 mmHg 79%
    11:00 +1°C° 0 mm 6 mps 753 mmHg 79%
    12:00 +1°C° 0 mm 6 mps 753 mmHg 79%
    13:00 +2°C° 0 mm 6 mps 753 mmHg 79%
    14:00 +2°C° 0 mm 5 mps 753 mmHg 79%
    15:00 +2°C° 0 mm 5 mps 752 mmHg 79%
    16:00 +3°C° 0 mm 4 mps 752 mmHg 79%
    17:00 +3°C° 0 mm 4 mps 752 mmHg 80%
    18:00 +1°C° 0 mm 4 mps 752 mmHg 81%
    19:00 +1°C° 0 mm 4 mps 752 mmHg 82%
    20:00 0°C° 0 mm 4 mps 752 mmHg 83%
    21:00 +1°C° 0 mm 3 mps 751 mmHg 84%
    22:00 +1°C° 0 mm 3 mps 751 mmHg 84%
    23:00 0°C° 0 mm 3 mps 750 mmHg 83%

    31 January, Friday

    Time Temperature Precipitation Wind Pressure Humidity
    00:00 0°C° 0 mm 3 mps 750 mmHg 82%
    01:00 0°C° 0 mm 3 mps 749 mmHg 81%
    02:00 0°C° 0 mm 3 mps 748 mmHg 79%
    03:00 0°C° 0 mm 3 mps 748 mmHg 77%
    04:00 0°C° 0 mm 3 mps 747 mmHg 76%
    05:00 +1°C° 0.8 mm 3 mps 746 mmHg 80%
    06:00 0°C° 0.8 mm 4 mps 746 mmHg 85%
    07:00 +1°C° 0.8 mm 4 mps 745 mmHg 90%
    08:00 +3°C° 1 mm 4 mps 746 mmHg 91%
    09:00 +4°C° 1 mm 4 mps 746 mmHg 92%
    10:00 +5°C° 1 mm 4 mps 746 mmHg 93%
    11:00 +5°C° 0.2 mm 5 mps 746 mmHg 91%
    12:00 +5°C° 0.2 mm 6 mps 747 mmHg 89%
    13:00 +6°C° 0.2 mm 7 mps 747 mmHg 87%
    14:00 +6°C° 0 mm 7 mps 748 mmHg 85%
    15:00 +7°C° 0 mm 6 mps 748 mmHg 83%
    16:00 +7°C° 0 mm 6 mps 749 mmHg 82%
    17:00 +7°C° 0 mm 5 mps 750 mmHg 82%
    18:00 +6°C° 0 mm 5 mps 751 mmHg 83%
    19:00 +6°C° 0 mm 4 mps 751 mmHg 84%
    20:00 +6°C° 0 mm 4 mps 752 mmHg 84%
    21:00 +6°C° 0 mm 4 mps 752 mmHg 84%
    22:00 +6°C° 0 mm 4 mps 752 mmHg 84%
    23:00 +6°C° 0 mm 4 mps 752 mmHg 84%
    Show more